Terminal Aerodrome Forecast
Issued by NWS Denver/Boulder, CO

Home | Current Version | Previous Version | Text Only | Print | Product List | Glossary On
Versions: 1 2 3 4 5 6 7 8 9 10 11 12 13 14 15 16 17 18 19 20 21 22 23 24 25 26 27 28 29 30 31 32 33 34 35 36 37 38 39 40 41 42 43 44 45 46 47 48 49 50
000
FTUS45 KBOU 181410 AAA
TAFDEN
TAF AMD
KDEN 181410Z 1814/1918 VRB04KT P6SM VCFG SCT070 SCT130 BKN170
     FM181500 VRB05KT P6SM SCT070 BKN130
     FM182200 11006KT P6SM BKN060 OVC100
     FM190500 20007KT P6SM SCT080 SCT150
     FM191400 21006KT P6SM FEW150=

USA.gov is the U.S. government's official web portal to all federal, state and local government web resources and services.